Plymouth, ME (04969)

9:05 AM EDT on April 25, 2015 (GMT -0400)
Hopkins Road | | Change Station
CLOSE
Current Station
Personal Weather Station
Location: Plymouth, ME
Elevation: 341 ft
Nearby Weather Stations
Active Advisory: Flood Warning

Elev 341 ft 44.74 °N, 69.17 °W | Updated 2 seconds ago

Overcast
Overcast
42.1 °F
Feels Like 42 °F
N
0.7
Wind Variable Wind from North
Gusts 3.8 mph

Today
High -- | Low -- °F
--% Chance of Precip.
Yesterday
High -- | Low -- °F
Precip. -- in
5:36 AM 7:34 PM
Waxing Crescent, 45% visible
Pressure 29.67 in
Visibility 10.0 miles
Clouds Overcast 3400 ft
Windchill 42 °F
Dew Point 30 °F
Humidity 63%
Rainfall 0.00 in
Snow Depth Not available.
UV 1 out of 12
Pollen 4.30 out of 12
Air Quality Not available.
Flu Activity Regional
METAR KBGR 251253Z 31009KT 10SM OVC034 03/M02 A2966 RMK AO2 SLP045 T00331017

More Conditions Fewer Conditions

Pressure 29.67 in
Visibility 10.0 miles
Clouds Overcast 3400 ft
Windchill 42 °F
Dew Point 30 °F
Humidity 63%
Rainfall 0.00 in
Snow Depth Not available.
UV 1 out of 12
Pollen 4.30 out of 12
Air Quality Not available.
Flu Activity Regional
METAR KBGR 251253Z 31009KT 10SM OVC034 03/M02 A2966 RMK AO2 SLP045 T00331017

More Conditions Fewer Conditions

10-Day Weather Forecast

Almanac

Astronomy

Apr. 25, 2015 Rise Set
Actual Time
Civil Twilight
Nautical Twilight
Astronomical Twilight
Moon
Length of Visible Light
Length of Day
Tomorrow will be .
, % of the Moon is Illuminated

Today's Extremes

State Highs State Lows

Community

WunderPhotos

Upload Photos

1,816,660 photos uploaded!

WunderBlogs® & News

Nearby

Air Quality

  Air Quality AQ Index Pollutant
Not available.

Snow Depth

Station Depth Elevation

Earthquake Activity

City Distance Mag. Time & Date
Minimum magnitude displayed is 2.5.

Coastal Water Temperatures

Place Temperature

Stations

Nearby Weather Stations

Station Location Temp. Windchill Dew Point Humidity Wind Precip. Elev Updated Type
                   
Flood Warning
Statement as of 10:35 PM EDT on April 24, 2015

The Flood Warning continues for
the Mattawamkeag River above Mattawamkeag
* until further notice... or until the warning is cancelled.
* At 22:15 PM Friday the stage was 14.2 feet
* minor flooding is occurring and minor flooding is forecast.
* Flood stage is 13.5 feet.
* Forecast... the river will continue rising to near 14.4 feet by
Saturday evening.
* Impacts... at 13.5 feet, minor lowland flooding occurs. Flooding may
affect the Bancroft Road between Wytopitlock and Danforth... however
there have not been any reports of flooding at this time.


Lat... Lon 4557 6838 4560 6819 4572 6808 4566 6794
      4551 6810 4546 6835